Flag Weather past 2 weeks in Lancaster, California, U.S.A.

Now
40 °F

Clear.


Feels Like: 34 °F
Forecast: 38 / 73 °F
Wind: 8 mph from West

Location: Lancaster / Fox Field

Current Time: Nov 26, 2014 at 10:12:01 PM

Latest Report: Nov 26, 2014 at 9:56 PM


Visibility: 10 mi

Pressure: 30.33 "Hg

Humidity: 32%

Dew point: 12 °F

Location of LancasterLocation

Historic Weather in Lancaster — Graph

°F

Lancaster temperature yesterday

Maximum temperature yesterday: 65 °F (at 2:56 PM)
Minimum temperature yesterday: 24 °F (at 4:56 AM)
Average temperature yesterday: 44 °F

Past Weeks' High & Low Weather Summary

 TemperatureHumidityPressure
High71 °F (Nov 13, 11:56 AM)82% (Nov 22, 1:56 AM)30.56 "Hg (Nov 22, 1:56 AM)
Low24 °F (Nov 25, 4:56 AM)5% (Nov 16, 1:56 PM)29.87 "Hg (Nov 12, 1:56 PM)
Average51 °F43%30.16 "Hg
* Reported Nov 11 8:56 PM — Nov 26 8:56 PM, Lancaster, Weather by CustomWeather, © 2014

Note: Actual official high and low records may vary slightly from our data, if they occured in-between our weather recording intervals... More about our weather records

Advertising

Lancaster weather history for previous 24 hours

 ConditionsComfort  
Time TempWeatherWind HumidityBarometerVisibility
8:56 PM
Nov 26
45 °FClear.3 mph27%30.34 "Hg10 mi
7:56 PM42 °FClear.5 mph27%30.35 "Hg10 mi
6:56 PM46 °FClear.7 mph24%30.34 "Hg10 mi
5:56 PM53 °FClear.6 mph18%30.33 "Hg10 mi
4:56 PM62 °FClear.3 mph13%30.31 "Hg7 mi
3:56 PM69 °FSunny.No wind10%30.30 "Hg10 mi
2:56 PM70 °FSunny.No wind9%30.31 "Hg10 mi
1:56 PM68 °FSunny.No wind9%30.31 "Hg10 mi
12:56 PM66 °FSunny.No wind10%30.34 "Hg10 mi
11:56 AM63 °FSunny.No wind12%30.37 "Hg10 mi
10:56 AM60 °FSunny.No wind14%30.42 "Hg10 mi
9:56 AM53 °FSunny.No wind18%30.45 "Hg10 mi
8:56 AM45 °FSunny.No wind26%30.45 "Hg10 mi
7:56 AM38 °FSunny.No wind33%30.46 "Hg10 mi
6:56 AM33 °FSunny.No wind38%30.44 "Hg10 mi
5:56 AM31 °FClear.5 mph40%30.42 "Hg10 mi
4:56 AM30 °FClear.No wind38%30.40 "Hg10 mi
3:56 AM32 °FClear.No wind38%30.40 "Hg10 mi
2:56 AM31 °FClear.5 mph38%30.41 "Hg10 mi
1:56 AM36 °FClear.No wind31%30.40 "Hg10 mi
12:56 AM34 °FClear.No wind34%30.40 "Hg10 mi
11:56 PM
Nov 25
40 °FClear.No wind28%30.41 "Hg10 mi
10:56 PM37 °FClear.3 mph30%30.42 "Hg10 mi
Weather by CustomWeather, © 2014

See weather overviewHow to use our weather pages